Simultaneous Nadir Overpasses (SNOs) Predictions

Prediction of SNOs between METOP-C and LANDSAT-8 Satellite Orbit:

Table of predicted SNOs for the next 14.0 days since TLE Epoch: 6/8/2019
Index Date (METOP-C) Time (METOP-C) Lat,Lon (METOP-C) SZA (METOP-C ) Date (LANDSAT-8) Time (LANDSAT-8) Lat,Lon (LANDSAT-8) SZA (LANDSAT-8 ) Distance(km) Time Diff (sec)
1 06/10/2019 00:36:09 -81.12, 30.78 119.68 06/10/2019 00:37:08 -81.13, 30.77 119.65 0.55 59
2 06/10/2019 01:26:48 81.13,-161.59 60.36 06/10/2019 01:26:34 81.13,-161.54 60.36 0.96 14
3 06/12/2019 20:10:32 -81.11, 96.93 119.92 06/12/2019 20:11:24 -81.11, 97.00 119.89 1.11 52
4 06/12/2019 21:01:10 81.14, -95.08 60.17 06/12/2019 21:00:49 81.14, -94.97 60.17 1.92 21
5 06/15/2019 15:44:55 -81.12, 163.45 120.06 06/15/2019 15:45:40 -81.12, 163.56 120.03 1.97 45
6 06/15/2019 16:35:33 81.14, -28.56 60.03 06/15/2019 16:35:05 81.14, -28.42 60.03 2.49 28
7 06/18/2019 11:19:18 -81.12,-130.03 120.15 06/18/2019 11:19:56 -81.13,-129.89 120.12 2.47 38
8 06/18/2019 12:09:56 81.14, 37.97 59.94 06/18/2019 12:09:21 81.15, 38.11 59.94 2.58 35
9 06/21/2019 06:53:40 -81.12, -63.52 120.19 06/21/2019 06:54:11 -81.13, -63.38 120.15 2.55 31




NCC Satellite Simultaneous Nadir Overpasses (SNOs) Prediction Service
